Total_Precipitation_Accumulation
2.22 2.27 2.34 2.36 2.18 2.27 2.44 2.70 2.60 2.65 2.69 2.46 2.16 2.04 2.14 2.17 2.26 2.29 2.25 2.46 2.40 2.43 2.93 3.06 2.74 2.37 2.16 1.85 1.61 1.36 1.21 1.14 1.03 0.82 0.72 0.76 0.83 0.89 0.82 0.71 0.66 0.63 0.55
2.57 2.52 2.37 2.40 2.28 2.26 2.35 2.58 2.67 3.03 3.02 2.93 2.46 2.25 2.30 2.36 2.38 2.49 2.39 2.65 2.54 2.32 2.60 2.91 2.99 2.81 2.55 2.33 2.04 1.75 1.51 1.39 1.23 0.97 0.84 0.78 0.82 0.89 0.86 0.85 0.80 0.74 0.65
2.72 2.66 2.58 2.38 2.35 2.41 2.61 2.69 2.76 3.04 3.06 2.98 2.80 2.61 2.48 2.25 2.13 2.20 2.21 2.37 2.34 2.26 2.38 2.64 2.94 3.03 2.93 2.79 2.63 2.37 1.99 1.69 1.45 1.19 0.99 0.84 0.76 0.82 0.84 0.89 0.92 0.90 0.79
2.73 2.81 2.61 2.36 2.44 2.42 2.61 2.91 3.01 3.17 3.35 3.35 3.06 2.78 2.62 2.47 2.25 2.18 2.05 2.03 2.26 1.95 2.18 2.48 2.68 2.84 3.16 3.33 3.39 3.30 2.82 2.23 1.77 1.52 1.26 1.03 0.88 0.83 0.79 0.85 0.93 0.91 0.81
2.63 2.76 2.59 2.49 2.52 2.70 2.76 2.58 3.14 3.46 3.52 3.52 2.93 2.81 2.47 2.33 2.17 2.02 2.06 1.89 1.99 2.05 2.08 2.10 2.26 2.44 3.02 3.73 4.09 4.13 3.87 3.10 2.40 2.04 1.80 1.55 1.30 1.10 0.92 0.86 0.87 0.80 0.74
2.54 2.77 2.48 2.47 2.62 2.87 2.96 3.04 3.45 3.53 3.37 3.55 2.96 2.58 2.21 1.86 1.79 1.80 1.68 1.67 1.66 1.64 1.79 2.15 2.47 2.22 2.65 3.31 3.67 3.92 4.21 4.09 3.43 2.66 2.30 2.05 1.83 1.55 1.23 1.05 0.96 0.92 0.85
2.68 3.05 2.71 2.91 2.83 2.87 2.93 3.11 3.37 3.32 3.12 3.46 3.47 2.74 1.95 1.52 1.50 1.39 1.35 1.43 1.39 1.47 1.73 2.23 2.56 2.62 2.38 2.36 2.60 3.02 3.67 4.12 3.98 3.33 2.90 2.63 2.45 2.06 1.67 1.44 1.27 1.12 1.03
2.83 2.84 3.03 2.93 2.95 3.01 2.83 2.92 3.23 3.07 2.71 3.11 3.42 3.34 2.49 1.95 1.50 1.05 1.18 1.24 1.35 1.54 1.59 1.68 2.10 2.60 2.49 2.57 2.35 2.21 2.79 3.52 3.98 3.94 3.57 3.18 2.84 2.44 2.10 1.88 1.62 1.38 1.17
2.86 2.91 2.84 2.78 2.86 2.79 2.73 2.75 2.94 3.03 2.83 2.84 3.23 3.54 2.88 2.20 1.72 1.26 1.17 1.13 1.43 1.76 1.75 1.77 1.93 2.28 2.40 2.66 2.80 2.67 2.41 2.62 3.34 4.23 4.33 3.75 3.03 2.48 2.19 2.10 2.05 1.83 1.61
3.12 2.92 2.74 2.64 2.57 2.48 2.59 2.37 2.65 2.85 2.96 2.66 2.79 2.84 2.68 2.57 2.42 1.77 1.36 1.25 1.53 1.75 1.87 1.86 1.93 2.13 2.31 2.64 2.91 2.74 2.23 2.00 2.36 3.38 4.13 4.09 3.49 2.74 2.34 2.39 2.71 2.59 2.17
3.17 2.84 2.76 2.70 2.61 2.46 2.39 2.35 2.55 2.49 2.56 2.55 2.55 2.59 2.63 2.60 2.43 2.17 1.79 1.64 1.58 1.35 1.39 1.55 1.80 2.06 2.17 2.38 2.73 2.59 2.34 2.22 2.16 2.28 2.65 3.05 3.27 3.05 2.78 2.82 3.25 3.51 3.26
2.77 2.56 2.50 2.46 2.36 2.35 2.36 2.34 2.36 2.33 2.39 2.45 2.42 2.41 2.52 2.54 2.50 2.53 2.20 1.96 1.76 1.48 1.42 1.49 1.65 1.81 1.90 2.00 2.04 2.19 2.14 2.11 2.01 1.92 1.91 2.03 2.31 2.65 2.91 3.18 3.61 3.99 4.13
2.03 2.03 2.10 2.14 2.08 2.12 2.14 2.26 2.19 2.11 2.21 2.34 2.31 2.29 2.38 2.40 2.47 2.61 2.52 2.08 1.90 1.70 1.75 1.63 1.53 1.70 1.74 1.91 2.08 2.04 1.79 1.79 1.64 1.58 1.58 1.63 1.80 2.05 2.27 2.50 2.99 3.51 3.92
1.76 1.84 1.93 1.91 1.87 1.89 1.85 2.08 1.94 1.90 2.00 2.05 1.97 2.28 2.28 2.06 2.28 2.45 2.52 2.52 2.28 2.10 2.13 1.90 1.66 1.64 1.76 1.91 2.05 1.98 1.69 1.56 1.35 1.26 1.27 1.29 1.34 1.50 1.73 1.96 2.22 2.51 2.82
1.77 1.83 1.82 1.87 1.87 1.89 1.95 2.05 1.90 1.86 2.04 2.00 1.96 2.18 2.14 2.01 2.10 2.22 2.42 2.60 2.69 2.47 2.31 2.15 1.86 1.70 1.73 1.80 2.03 1.87 1.87 1.71 1.39 1.28 1.22 1.17 1.14 1.22 1.36 1.57 1.76 1.92 2.15
1.84 1.86 1.86 1.95 1.88 1.81 1.83 1.88 1.69 1.71 1.93 1.99 2.07 2.25 2.21 2.12 2.17 2.22 2.36 2.62 2.87 2.85 2.47 2.03 1.86 1.80 1.90 1.85 2.06 1.83 1.77 1.80 1.52 1.29 1.18 1.18 1.17 1.18 1.24 1.40 1.57 1.72 1.85
1.85 1.80 1.78 1.80 1.78 1.73 1.77 1.80 1.63 1.77 1.91 1.96 1.98 2.13 2.19 2.30 2.35 2.34 2.45 2.57 2.81 3.04 2.73 2.21 2.10 2.10 2.21 2.20 2.10 1.87 1.66 1.58 1.42 1.37 1.20 1.14 1.13 1.17 1.23 1.29 1.42 1.56 1.64
1.84 1.85 1.84 1.81 1.69 1.71 1.88 1.94 1.84 1.93 2.00 1.97 2.01 2.17 2.08 2.23 2.39 2.36 2.46 2.46 2.56 2.87 2.77 2.51 2.45 2.40 2.38 2.29 2.29 2.10 1.77 1.61 1.53 1.52 1.30 1.17 1.15 1.14 1.17 1.19 1.29 1.46 1.58
1.91 1.98 1.98 1.98 1.95 1.97 1.98 2.05 2.15 2.13 2.05 1.96 2.02 2.03 2.00 2.19 2.20 2.29 2.42 2.38 2.37 2.53 2.70 2.64 2.60 2.67 2.63 2.52 2.44 2.25 2.05 1.97 1.67 1.60 1.51 1.41 1.38 1.35 1.32 1.31 1.31 1.38 1.49
1.96 2.06 2.06 2.17 2.32 2.36 2.35 2.31 2.22 2.15 2.09 2.05 2.03 1.98 1.95 1.98 2.01 2.09 2.21 2.31 2.38 2.51 2.64 2.67 2.72 2.85 2.82 2.86 2.83 2.61 2.47 2.37 2.03 1.67 1.67 1.57 1.50 1.40 1.30 1.23 1.21 1.26 1.38
1.82 2.10 2.24 2.31 2.57 2.71 2.53 2.53 2.45 2.35 2.35 2.18 2.06 1.97 1.84 1.86 1.92 1.94 1.90 2.01 2.16 2.31 2.34 2.44 2.53 2.74 2.81 2.91 2.90 2.75 2.63 2.61 2.41 1.97 1.80 1.67 1.59 1.48 1.45 1.40 1.30 1.24 1.27
1.70 1.88 2.01 2.12 2.17 2.03 2.17 2.19 2.18 2.22 2.25 2.15 2.08 2.02 1.87 1.78 1.75 1.70 1.61 1.62 1.71 1.83 2.02 2.25 2.33 2.53 2.72 2.88 3.07 3.12 2.95 2.77 2.63 2.34 2.20 2.06 1.80 1.71 1.54 1.40 1.37 1.18 1.07
1.66 1.75 1.78 1.84 1.81 1.88 1.90 1.69 1.64 1.61 1.78 1.90 1.97 1.96 1.73 1.57 1.65 1.57 1.59 1.55 1.55 1.67 1.78 2.02 2.20 2.28 2.51 2.71 2.96 3.11 3.09 2.96 2.77 2.61 2.47 2.34 2.01 1.80 1.60 1.48 1.40 1.13 0.98
1.73 1.71 1.76 1.80 1.88 1.87 1.76 1.53 1.51 1.47 1.61 1.72 1.79 1.83 1.79 1.72 1.71 1.75 1.66 1.54 1.47 1.54 1.63 1.60 1.65 1.81 2.08 2.44 2.62 2.67 2.82 2.86 2.72 2.54 2.45 2.42 2.16 1.94 1.73 1.60 1.53 1.23 1.06
1.94 1.89 1.96 1.99 1.97 1.89 1.76 1.56 1.54 1.49 1.60 1.64 1.64 1.66 1.68 1.63 1.72 1.60 1.49 1.47 1.46 1.49 1.47 1.44 1.40 1.44 1.59 1.81 2.14 2.30 2.41 2.38 2.28 2.03 1.91 1.98 1.95 1.91 1.84 1.71 1.54 1.38 1.18
2.36 2.38 2.27 2.12 1.99 1.89 1.86 1.57 1.47 1.41 1.50 1.57 1.65 1.61 1.55 1.43 1.41 1.36 1.34 1.45 1.44 1.42 1.44 1.38 1.29 1.22 1.18 1.33 1.65 1.83 1.92 1.97 1.87 1.81 1.55 1.53 1.57 1.62 1.74 1.61 1.44 1.36 1.28